Challis, ID

6:19 AM MST on February 08, 2016 (GMT -0700)
Challis

Weather History for KLLJ - September, 2013

Change the Weather History Date:

Friday, September 6, 2013

  Actual Average Record
Temperature  
Mean Temperature 69 °F 60 °F  
Max Temperature 85 °F 77 °F 90 °F (1988)
Min Temperature 52 °F 42 °F 29 °F (2010)
Degree Days  
Heating Degree Days 0 6  
Month to date heating degree days 0 32  
Since 1 July heating degree days 6 105  
Cooling Degree Days 4 0  
Month to date cooling degree days 20 4  
Year to date cooling degree days 410 246  
Growing Degree Days 18 (Base 50)    
Moisture  
Dew Point 43 °F    
Average Humidity 51    
Maximum Humidity 89    
Minimum Humidity 13    
Precipitation  
Precipitation 0.00 in 0.02 in 0.88 in (2001)
Month to date precipitation 0.24 0.15  
Year to date precipitation 2.75 7.54  
Sea Level Pressure  
Sea Level Pressure 29.96 in    
Wind  
Wind Speed 4 mph (WSW)    
Max Wind Speed 18 mph    
Max Gust Speed 24 mph    
Visibility 10 miles    
Events Thunderstorm    
T = Trace of Precipitation, MM = Missing Value Source: NWS Daily Summary

Daily Weather History Graph

Daily Weather History Graph

Search for Another Location

Airport or City:

Trip Planner

Search our weather history database for the weather conditions in past years. The results will help you decide how hot, cold, wet, or windy it might be!

Date:

Astronomy

Sep. 06, 2013 Rise Set
Actual Time 7:05 AM MDT 8:03 PM MDT
Civil Twilight 6:36 AM MDT 8:33 PM MDT
Nautical Twilight 6:00 AM MDT 9:08 PM MDT
Astronomical Twilight 5:23 AM MDT 9:45 PM MDT
Moon 8:27 AM MDT (9/6) 8:23 PM MDT (9/6)
Length of Visible Light 13h 57m
Length of Day
12h 57m
New Moon, 2% of the Moon is Illuminated
Sep 6
New Moon
Sep 12
First Quarter
Sep 19
Full
Sep 26
Last Quarter
Oct 4
New

Hourly Weather History & Observations

Time (MDT) Temp. Dew Point Humidity Pressure Visibility Wind Dir Wind Speed Gust Speed Precip Events Conditions
12:55 AM 61.0 °F 51.1 °F 70% 29.95 in 10.0 mi NW 5.8 mph - 0.00 in   Partly Cloudy
1:46 AM 60.8 °F 51.8 °F 72% 30.13 in 10.0 mi Calm Calm - N/A Thunderstorm Scattered Clouds
1:55 AM 62.1 °F 50.0 °F 65% 29.93 in 10.0 mi Calm Calm - N/A Thunderstorm Scattered Clouds
2:11 AM 60.8 °F 51.8 °F 72% 30.12 in 10.0 mi Calm Calm - N/A   Partly Cloudy
2:55 AM 57.9 °F 50.0 °F 75% 29.93 in 10.0 mi WNW 4.6 mph - N/A   Clear
3:55 AM 57.0 °F 50.0 °F 77% 29.92 in 10.0 mi SSE 3.5 mph - N/A   Clear
4:55 AM 55.9 °F 50.0 °F 80% 29.96 in 10.0 mi Calm Calm - N/A   Clear
5:55 AM 55.9 °F 50.0 °F 80% 29.95 in 10.0 mi SW 4.6 mph - N/A   Partly Cloudy
6:55 AM 52.0 °F 48.0 °F 86% 29.99 in 10.0 mi West 3.5 mph - N/A   Clear
7:55 AM 55.9 °F 51.1 °F 84% 30.00 in 10.0 mi Calm Calm - N/A   Clear
8:55 AM 60.1 °F 51.1 °F 72% 30.00 in 10.0 mi Calm Calm - N/A   Clear
9:55 AM 62.1 °F 51.1 °F 67% 30.01 in 10.0 mi Calm Calm - N/A   Clear
10:55 AM 66.9 °F 52.0 °F 59% 29.99 in 10.0 mi Calm Calm - N/A   Clear
11:55 AM 71.1 °F 52.0 °F 51% 29.96 in 10.0 mi Calm Calm - N/A   Clear
12:55 PM 77.0 °F 50.0 °F 39% 29.91 in 10.0 mi SE 5.8 mph - N/A   Clear
5:55 PM 84.0 °F 28.0 °F 13% 29.83 in 10.0 mi WSW 12.7 mph 24.2 mph N/A   Clear
6:55 PM 81.0 °F 25.0 °F 13% 29.86 in 10.0 mi SW 13.8 mph - N/A   Clear
7:55 PM 78.1 °F 25.0 °F 14% 29.88 in 10.0 mi WSW 10.4 mph - N/A   Clear
8:55 PM 73.9 °F 27.0 °F 18% 29.91 in 10.0 mi WSW 8.1 mph - N/A   Clear
9:55 PM 72.0 °F 27.0 °F 19% 29.93 in 10.0 mi WSW 8.1 mph - N/A   Clear
10:55 PM 64.0 °F 34.0 °F 33% 29.98 in 10.0 mi NE 3.5 mph - N/A   Clear
11:55 PM 63.0 °F 30.9 °F 30% 29.99 in 10.0 mi SW 4.6 mph - N/A   Clear